Location: Colebrook
(42.0017°N, 73.0973°W)
Time: 07:07:18
(UTC-04:00)

ISS - Pass Details

Date: 05 October 2021
Orbit: 417 x 423 km, 51.6° (Epoch: 16 October)

Event Time Altitude Azimuth Distance (km) Brightness Sun altitude
Rises 18:57:41 0° 305° (NW) 2,364 1.0 -6.6°
Reaches altitude 10° 18:59:48 10° 307° (NW) 1,498 -0.1 -7.0°
Maximum altitude 19:03:09 75° 33° (NNE) 436 -3.8 -7.6°
Drops below altitude 10° 19:06:30 10° 120° (ESE) 1,493 -1.5 -8.2°
Enters shadow 19:06:50 - 120° (ESE) 1,628 -1.3 -8.3°
